Time,TemperatureF,DewpointF,PressureIn,WindDirection,WindDirectionDegrees,WindSpeedMPH,WindSpeedGustMPH,Humidity,HourlyPrecipIn,Conditions,Clouds,dailyrainin,SoftwareType,DateUTC
2013-01-07 00:09:00,32.2,31.0,30.00,WNW,285,0.0,5.0,96,0.00,,,0.00,weatherlink.com 1.10,2013-01-07 05:09:00,
2013-01-07 00:22:00,31.9,31.0,30.01,WNW,286,0.0,5.0,96,0.01,,,0.01,weatherlink.com 1.10,2013-01-07 05:22:00,
2013-01-07 00:37:00,31.9,31.0,30.02,NW,313,1.0,5.0,96,0.01,,,0.01,weatherlink.com 1.10,2013-01-07 05:37:00,
2013-01-07 00:52:00,31.9,31.0,30.02,NW,315,2.0,7.0,96,0.01,,,0.01,weatherlink.com 1.10,2013-01-07 05:52:00,
2013-01-07 01:07:00,31.9,31.0,30.02,WNW,288,1.0,9.0,96,0.01,,,0.01,weatherlink.com 1.10,2013-01-07 06:07:00,
2013-01-07 01:22:00,31.9,31.0,30.03,WNW,283,3.0,7.0,96,0.00,,,0.01,weatherlink.com 1.10,2013-01-07 06:22:00,
2013-01-07 01:37:00,31.9,31.0,30.05,WNW,303,2.0,7.0,97,0.00,,,0.01,weatherlink.com 1.10,2013-01-07 06:37:00,
2013-01-07 01:52:00,31.9,31.0,30.06,WNW,296,4.0,6.0,97,0.00,,,0.01,weatherlink.com 1.10,2013-01-07 06:52:00,
2013-01-07 02:08:00,31.8,31.0,30.07,WNW,294,3.0,8.0,96,0.00,,,0.01,weatherlink.com 1.10,2013-01-07 07:08:00,
2013-01-07 02:23:00,31.8,31.0,30.08,WNW,294,0.0,4.0,96,0.01,,,0.02,weatherlink.com 1.10,2013-01-07 07:23:00,
2013-01-07 02:38:00,31.7,31.0,30.10,NW,320,0.0,4.0,97,0.01,,,0.02,weatherlink.com 1.10,2013-01-07 07:38:00,
2013-01-07 02:53:00,30.7,30.0,30.10,NW,322,0.0,6.0,96,0.01,,,0.02,weatherlink.com 1.10,2013-01-07 07:53:00,
2013-01-07 03:08:00,29.2,28.0,30.11,NNW,337,1.0,10.0,94,0.01,,,0.02,weatherlink.com 1.10,2013-01-07 08:08:00,
2013-01-07 03:23:00,28.3,27.0,30.13,NNW,340,0.0,10.0,93,0.00,,,0.02,weatherlink.com 1.10,2013-01-07 08:23:00,
2013-01-07 03:38:00,27.2,25.0,30.14,NW,304,0.0,10.0,91,0.00,,,0.02,weatherlink.com 1.10,2013-01-07 08:38:00,
2013-01-07 03:53:00,26.3,24.0,30.16,NNW,338,0.0,13.0,90,0.00,,,0.02,weatherlink.com 1.10,2013-01-07 08:53:00,
2013-01-07 04:08:00,25.5,23.0,30.17,North,5,0.0,7.0,89,0.00,,,0.02,weatherlink.com 1.10,2013-01-07 09:08:00,
2013-01-07 04:23:00,24.9,22.0,30.17,NNE,17,5.0,10.0,88,0.00,,,0.02,weatherlink.com 1.10,2013-01-07 09:23:00,
2013-01-07 04:38:00,24.2,21.0,30.18,NNE,30,10.0,11.0,88,0.00,,,0.02,weatherlink.com 1.10,2013-01-07 09:38:00,
2013-01-07 04:53:00,23.6,21.0,30.20,NNW,327,7.0,10.0,88,0.00,,,0.02,weatherlink.com 1.10,2013-01-07 09:53:00,
2013-01-07 05:08:00,23.2,20.0,30.20,NNW,327,3.0,8.0,88,0.00,,,0.02,weatherlink.com 1.10,2013-01-07 10:08:00,
2013-01-07 05:23:00,22.9,20.0,30.22,NW,324,0.0,6.0,87,0.00,,,0.02,weatherlink.com 1.10,2013-01-07 10:23:00,
2013-01-07 05:38:00,22.7,20.0,30.23,NW,325,0.0,6.0,88,0.00,,,0.02,weatherlink.com 1.10,2013-01-07 10:38:00,
2013-01-07 05:54:00,22.4,19.0,30.24,NNW,336,1.0,10.0,87,0.00,,,0.02,weatherlink.com 1.10,2013-01-07 10:54:00,
2013-01-07 06:09:00,22.2,19.0,30.25,NNE,12,0.0,9.0,88,0.00,,,0.02,weatherlink.com 1.10,2013-01-07 11:09:00,
2013-01-07 06:24:00,22.1,19.0,30.26,NNE,12,3.0,5.0,88,0.00,,,0.02,weatherlink.com 1.10,2013-01-07 11:24:00,
2013-01-07 06:39:00,21.9,19.0,30.27,NE,35,5.0,10.0,88,0.00,,,0.02,weatherlink.com 1.10,2013-01-07 11:39:00,
2013-01-07 06:54:00,21.6,19.0,30.28,North,355,0.0,9.0,88,0.00,,,0.02,weatherlink.com 1.10,2013-01-07 11:54:00,
2013-01-07 07:09:00,21.2,18.0,30.29,NE,34,4.0,7.0,88,0.00,,,0.02,weatherlink.com 1.10,2013-01-07 12:09:00,
2013-01-07 07:24:00,21.0,18.0,30.29,NE,45,0.0,7.0,89,0.00,,,0.02,weatherlink.com 1.10,2013-01-07 12:24:00,
2013-01-07 07:39:00,20.9,18.0,30.30,NNW,346,0.0,5.0,89,0.00,,,0.02,weatherlink.com 1.10,2013-01-07 12:39:00,
2013-01-07 07:54:00,20.9,18.0,30.32,North,355,0.0,3.0,88,0.00,,,0.02,weatherlink.com 1.10,2013-01-07 12:54:00,
2013-01-07 08:09:00,20.9,18.0,30.32,North,350,0.0,1.0,88,0.00,,,0.02,weatherlink.com 1.10,2013-01-07 13:09:00,
2013-01-07 08:24:00,20.9,18.0,30.34,WNW,292,0.0,2.0,88,0.00,,,0.02,weatherlink.com 1.10,2013-01-07 13:24:00,
2013-01-07 08:39:00,21.0,18.0,30.35,WNW,292,0.0,1.0,88,0.00,,,0.02,weatherlink.com 1.10,2013-01-07 13:39:00,
2013-01-07 08:54:00,21.1,18.0,30.36,WNW,292,0.0,1.0,88,0.00,,,0.02,weatherlink.com 1.10,2013-01-07 13:54:00,
2013-01-07 09:09:00,21.2,18.0,30.36,WNW,292,0.0,1.0,88,0.00,,,0.02,weatherlink.com 1.10,2013-01-07 14:09:00,
2013-01-07 09:24:00,21.4,18.0,30.37,WNW,292,0.0,0.0,88,0.00,,,0.02,weatherlink.com 1.10,2013-01-07 14:24:00,
2013-01-07 09:40:00,21.4,18.0,30.37,WNW,292,0.0,0.0,88,0.00,,,0.02,weatherlink.com 1.10,2013-01-07 14:40:00,
2013-01-07 09:55:00,21.7,19.0,30.38,WNW,292,0.0,0.0,88,0.00,,,0.02,weatherlink.com 1.10,2013-01-07 14:55:00,
2013-01-07 10:10:00,21.8,19.0,30.39,WNW,292,0.0,1.0,87,0.00,,,0.02,weatherlink.com 1.10,2013-01-07 15:10:00,
2013-01-07 10:25:00,22.1,19.0,30.39,WNW,292,0.0,0.0,87,0.00,,,0.02,weatherlink.com 1.10,2013-01-07 15:25:00,
2013-01-07 10:40:00,22.4,19.0,30.39,WNW,285,2.0,5.0,88,0.00,,,0.02,weatherlink.com 1.10,2013-01-07 15:40:00,
2013-01-07 10:55:00,22.5,19.0,30.38,WNW,288,0.0,6.0,87,0.00,,,0.02,weatherlink.com 1.10,2013-01-07 15:55:00,
2013-01-07 11:10:00,22.5,19.0,30.39,NW,305,2.0,4.0,87,0.00,,,0.02,weatherlink.com 1.10,2013-01-07 16:10:00,
2013-01-07 11:25:00,22.2,19.0,30.39,WNW,297,2.0,6.0,87,0.00,,,0.02,weatherlink.com 1.10,2013-01-07 16:25:00,
2013-01-07 11:39:00,22.1,19.0,30.39,WSW,258,0.0,6.0,88,0.00,,,0.02,weatherlink.com 1.10,2013-01-07 16:39:00,
2013-01-07 11:54:00,22.1,19.0,30.39,WNW,296,4.0,8.0,88,0.00,,,0.02,weatherlink.com 1.10,2013-01-07 16:54:00,
2013-01-07 12:09:00,22.3,19.0,30.38,NW,318,2.0,8.0,88,0.00,,,0.02,weatherlink.com 1.10,2013-01-07 17:09:00,
2013-01-07 12:24:00,22.3,19.0,30.37,WSW,250,4.0,6.0,87,0.00,,,0.02,weatherlink.com 1.10,2013-01-07 17:24:00,
2013-01-07 12:39:00,22.4,19.0,30.37,WNW,284,0.0,5.0,88,0.00,,,0.02,weatherlink.com 1.10,2013-01-07 17:39:00,
2013-01-07 12:54:00,22.5,19.0,30.38,WNW,291,3.0,4.0,87,0.00,,,0.02,weatherlink.com 1.10,2013-01-07 17:54:00,
2013-01-07 13:09:00,22.7,20.0,30.38,WNW,282,1.0,3.0,88,0.00,,,0.02,weatherlink.com 1.10,2013-01-07 18:09:00,
2013-01-07 13:24:00,22.8,20.0,30.38,West,269,0.0,5.0,87,0.00,,,0.02,weatherlink.com 1.10,2013-01-07 18:24:00,
2013-01-07 13:40:00,23.0,20.0,30.38,WNW,288,1.0,4.0,87,0.00,,,0.02,weatherlink.com 1.10,2013-01-07 18:40:00,
2013-01-07 13:55:00,23.0,20.0,30.38,WNW,288,0.0,3.0,87,0.00,,,0.02,weatherlink.com 1.10,2013-01-07 18:55:00,
2013-01-07 14:10:00,23.0,20.0,30.39,WNW,300,0.0,3.0,87,0.00,,,0.02,weatherlink.com 1.10,2013-01-07 19:10:00,
2013-01-07 14:25:00,23.2,20.0,30.39,WNW,288,0.0,7.0,87,0.00,,,0.02,weatherlink.com 1.10,2013-01-07 19:25:00,
2013-01-07 14:40:00,23.4,20.0,30.39,West,272,0.0,3.0,86,0.00,,,0.02,weatherlink.com 1.10,2013-01-07 19:40:00,
2013-01-07 14:55:00,23.5,20.0,30.39,NW,319,0.0,4.0,86,0.00,,,0.02,weatherlink.com 1.10,2013-01-07 19:55:00,
2013-01-07 15:10:00,23.7,20.0,30.40,NW,319,3.0,3.0,86,0.00,,,0.02,weatherlink.com 1.10,2013-01-07 20:10:00,
2013-01-07 15:25:00,23.9,20.0,30.39,NW,319,0.0,2.0,85,0.00,,,0.02,weatherlink.com 1.10,2013-01-07 20:25:00,
2013-01-07 15:40:00,23.9,20.0,30.39,SW,233,1.0,6.0,85,0.00,,,0.02,weatherlink.com 1.10,2013-01-07 20:40:00,
2013-01-07 15:55:00,24.1,20.0,30.39,SW,234,0.0,5.0,84,0.00,,,0.02,weatherlink.com 1.10,2013-01-07 20:55:00,
2013-01-07 16:10:00,24.1,20.0,30.39,West,265,0.0,2.0,85,0.00,,,0.02,weatherlink.com 1.10,2013-01-07 21:10:00,
2013-01-07 16:25:00,24.0,20.0,30.38,West,265,0.0,1.0,84,0.00,,,0.02,weatherlink.com 1.10,2013-01-07 21:25:00,
2013-01-07 16:40:00,24.2,21.0,30.39,WSW,257,0.0,0.0,86,0.00,,,0.02,weatherlink.com 1.10,2013-01-07 21:40:00,
2013-01-07 16:55:00,24.1,21.0,30.38,WSW,257,0.0,0.0,86,0.00,,,0.02,weatherlink.com 1.10,2013-01-07 21:55:00,
2013-01-07 17:10:00,23.8,20.0,30.37,WSW,257,0.0,0.0,86,0.00,,,0.02,weatherlink.com 1.10,2013-01-07 22:10:00,
2013-01-07 17:25:00,23.5,20.0,30.37,WSW,257,0.0,0.0,86,0.00,,,0.02,weatherlink.com 1.10,2013-01-07 22:25:00,
2013-01-07 17:40:00,23.2,20.0,30.36,WSW,238,0.0,1.0,87,0.00,,,0.02,weatherlink.com 1.10,2013-01-07 22:40:00,
2013-01-07 17:55:00,22.6,19.0,30.36,WSW,238,0.0,1.0,87,0.00,,,0.02,weatherlink.com 1.10,2013-01-07 22:55:00,
2013-01-07 18:10:00,21.7,18.0,30.35,SSE,148,0.0,2.0,87,0.00,,,0.02,weatherlink.com 1.10,2013-01-07 23:10:00,
2013-01-07 18:25:00,20.9,18.0,30.35,SSE,148,0.0,2.0,87,0.00,,,0.02,weatherlink.com 1.10,2013-01-07 23:25:00,
2013-01-07 18:40:00,20.2,17.0,30.34,SE,141,1.0,2.0,88,0.00,,,0.02,weatherlink.com 1.10,2013-01-07 23:40:00,
2013-01-07 18:55:00,19.7,17.0,30.33,SE,138,1.0,2.0,88,0.00,,,0.02,weatherlink.com 1.10,2013-01-07 23:55:00,
2013-01-07 19:10:00,19.1,16.0,30.33,SE,126,0.0,2.0,88,0.00,,,0.02,weatherlink.com 1.10,2013-01-08 00:10:00,
2013-01-07 19:25:00,19.1,17.0,30.32,SSE,153,0.0,5.0,90,0.00,,,0.02,weatherlink.com 1.10,2013-01-08 00:25:00,
2013-01-07 19:40:00,19.7,17.0,30.31,ESE,111,0.0,2.0,90,0.00,,,0.02,weatherlink.com 1.10,2013-01-08 00:40:00,
2013-01-07 19:55:00,19.5,17.0,30.31,East,86,2.0,2.0,89,0.00,,,0.02,weatherlink.com 1.10,2013-01-08 00:55:00,
2013-01-07 20:10:00,18.2,15.0,30.31,East,88,1.0,1.0,87,0.00,,,0.02,weatherlink.com 1.10,2013-01-08 01:10:00,
2013-01-07 20:25:00,16.9,14.0,30.30,East,101,1.0,2.0,87,0.00,,,0.02,weatherlink.com 1.10,2013-01-08 01:25:00,
2013-01-07 20:40:00,17.4,15.0,30.31,SSW,207,0.0,2.0,91,0.00,,,0.02,weatherlink.com 1.10,2013-01-08 01:40:00,
2013-01-07 20:55:00,18.2,16.0,30.31,South,191,0.0,1.0,91,0.00,,,0.02,weatherlink.com 1.10,2013-01-08 01:55:00,
2013-01-07 21:10:00,17.4,15.0,30.31,SE,132,1.0,2.0,90,0.00,,,0.02,weatherlink.com 1.10,2013-01-08 02:10:00,
2013-01-07 21:25:00,17.9,16.0,30.30,SE,135,0.0,3.0,91,0.00,,,0.02,weatherlink.com 1.10,2013-01-08 02:25:00,
2013-01-07 21:40:00,18.1,16.0,30.30,SE,129,1.0,3.0,91,0.00,,,0.02,weatherlink.com 1.10,2013-01-08 02:40:00,
2013-01-07 21:55:00,18.2,16.0,30.30,SE,142,1.0,6.0,91,0.00,,,0.02,weatherlink.com 1.10,2013-01-08 02:55:00,
2013-01-07 22:10:00,18.1,16.0,30.29,SE,135,2.0,3.0,90,0.00,,,0.02,weatherlink.com 1.10,2013-01-08 03:10:00,
2013-01-07 22:26:00,17.9,16.0,30.29,SE,140,1.0,4.0,90,0.00,,,0.02,weatherlink.com 1.10,2013-01-08 03:26:00,
2013-01-07 22:41:00,17.4,15.0,30.29,SE,128,0.0,2.0,90,0.00,,,0.02,weatherlink.com 1.10,2013-01-08 03:41:00,
2013-01-07 22:56:00,14.0,12.0,30.29,SE,136,0.0,3.0,91,0.00,,,0.02,weatherlink.com 1.10,2013-01-08 03:56:00,
2013-01-07 23:11:00,13.9,12.0,30.29,SE,138,2.0,3.0,91,0.00,,,0.02,weatherlink.com 1.10,2013-01-08 04:11:00,
2013-01-07 23:26:00,12.7,11.0,30.28,SSE,151,0.0,2.0,91,0.00,,,0.02,weatherlink.com 1.10,2013-01-08 04:26:00,
2013-01-07 23:41:00,13.6,12.0,30.28,SSE,147,2.0,6.0,93,0.00,,,0.02,weatherlink.com 1.10,2013-01-08 04:41:00,
2013-01-07 23:56:00,16.4,14.0,30.28,ESE,115,0.0,2.0,91,0.00,,,0.02,weatherlink.com 1.10,2013-01-08 04:56:00,